Year,Month,Day,Hour,Minute,Value (Times are PST for temperature in C)
2012,07,19,00,00,14.20
2012,07,19,00,01,14.20
2012,07,19,00,02,14.10
2012,07,19,00,03,14.10
2012,07,19,00,04,14.10
2012,07,19,00,05,14.10
2012,07,19,00,06,14.10
2012,07,19,00,07,14.10
2012,07,19,00,08,14.10
2012,07,19,00,09,14.10
2012,07,19,00,10,14.00
2012,07,19,00,11,14.00
2012,07,19,00,12,14.00
2012,07,19,00,13,14.00
2012,07,19,00,14,14.00
2012,07,19,00,15,13.90
2012,07,19,00,16,13.90
2012,07,19,00,17,13.90
2012,07,19,00,18,13.90
2012,07,19,00,19,13.80
2012,07,19,00,20,13.80
2012,07,19,00,21,13.80
2012,07,19,00,22,13.80
2012,07,19,00,23,13.70
2012,07,19,00,24,13.70
2012,07,19,00,25,13.70
2012,07,19,00,26,13.70
2012,07,19,00,27,13.70
2012,07,19,00,28,13.70
2012,07,19,00,29,13.70
2012,07,19,00,30,13.70
2012,07,19,00,31,13.70
2012,07,19,00,32,13.70
2012,07,19,00,33,13.70
2012,07,19,00,34,13.70
2012,07,19,00,35,13.60
2012,07,19,00,36,13.60
2012,07,19,00,37,13.60
2012,07,19,00,38,13.60
2012,07,19,00,39,13.60
2012,07,19,00,40,13.50
2012,07,19,00,41,13.50
2012,07,19,00,42,13.50
2012,07,19,00,43,13.50
2012,07,19,00,44,13.40
2012,07,19,00,45,13.40
2012,07,19,00,46,13.40
2012,07,19,00,47,13.40
2012,07,19,00,48,13.40
2012,07,19,00,49,13.40
2012,07,19,00,50,13.30
2012,07,19,00,51,13.30
2012,07,19,00,52,13.30
2012,07,19,00,53,13.30
2012,07,19,00,54,13.30
2012,07,19,00,55,13.30
2012,07,19,00,56,13.30
2012,07,19,00,57,13.30
2012,07,19,00,58,13.30
2012,07,19,00,59,13.30
2012,07,19,01,00,13.30
2012,07,19,01,01,13.30
2012,07,19,01,02,13.20
2012,07,19,01,03,13.20
2012,07,19,01,04,13.20
2012,07,19,01,05,13.20
2012,07,19,01,06,13.20
2012,07,19,01,07,13.10
2012,07,19,01,08,13.10
2012,07,19,01,09,13.10
2012,07,19,01,10,13.10
2012,07,19,01,11,13.10
2012,07,19,01,12,13.10
2012,07,19,01,13,13.00
2012,07,19,01,14,13.10
2012,07,19,01,15,13.10
2012,07,19,01,16,13.10
2012,07,19,01,17,13.10
2012,07,19,01,18,13.10
2012,07,19,01,19,13.10
2012,07,19,01,20,13.10
2012,07,19,01,21,13.10
2012,07,19,01,22,13.10
2012,07,19,01,23,13.10
2012,07,19,01,24,13.10
2012,07,19,01,25,13.10
2012,07,19,01,26,13.10
2012,07,19,01,27,13.10
2012,07,19,01,28,13.00
2012,07,19,01,29,13.00
2012,07,19,01,30,12.90
2012,07,19,01,31,12.90
2012,07,19,01,32,12.90
2012,07,19,01,33,12.90
2012,07,19,01,34,12.80
2012,07,19,01,35,12.80
2012,07,19,01,36,12.80
2012,07,19,01,37,12.80
2012,07,19,01,38,12.80
2012,07,19,01,39,12.80
2012,07,19,01,40,12.80
2012,07,19,01,41,12.80
2012,07,19,01,42,12.80
2012,07,19,01,43,12.80
2012,07,19,01,44,12.80
2012,07,19,01,45,12.80
2012,07,19,01,46,12.80
2012,07,19,01,47,12.80
2012,07,19,01,48,12.80
2012,07,19,01,49,12.80
2012,07,19,01,50,12.80
2012,07,19,01,51,12.80
2012,07,19,01,52,12.80
2012,07,19,01,53,12.80
2012,07,19,01,54,12.80
2012,07,19,01,55,12.80
2012,07,19,01,56,12.80
2012,07,19,01,57,12.80
2012,07,19,01,58,12.70
2012,07,19,01,59,12.70
2012,07,19,02,00,12.70
2012,07,19,02,01,12.70
2012,07,19,02,02,12.70
2012,07,19,02,03,12.60
2012,07,19,02,04,12.60
2012,07,19,02,05,12.60
2012,07,19,02,06,12.60
2012,07,19,02,07,12.60
2012,07,19,02,08,12.60
2012,07,19,02,09,12.60
2012,07,19,02,10,12.60
2012,07,19,02,11,12.60
2012,07,19,02,12,12.60
2012,07,19,02,13,12.50
2012,07,19,02,14,12.50
2012,07,19,02,15,12.50
2012,07,19,02,16,12.50
2012,07,19,02,17,12.50
2012,07,19,02,18,12.50
2012,07,19,02,19,12.50
2012,07,19,02,20,12.50
2012,07,19,02,21,12.50
2012,07,19,02,22,12.50
2012,07,19,02,23,12.50
2012,07,19,02,24,12.50
2012,07,19,02,25,12.50
2012,07,19,02,26,12.50
2012,07,19,02,27,12.50
2012,07,19,02,28,12.50
2012,07,19,02,29,12.50
2012,07,19,02,30,12.50
2012,07,19,02,31,12.50
2012,07,19,02,32,12.50
2012,07,19,02,33,12.50
2012,07,19,02,34,12.50
2012,07,19,02,35,12.50
2012,07,19,02,36,12.50
2012,07,19,02,37,12.60
2012,07,19,02,38,12.60
2012,07,19,02,39,12.60
2012,07,19,02,40,12.60
2012,07,19,02,41,12.70
2012,07,19,02,42,12.70
2012,07,19,02,43,12.70
2012,07,19,02,44,12.70
2012,07,19,02,45,12.70
2012,07,19,02,46,12.70
2012,07,19,02,47,12.80
2012,07,19,02,48,12.80
2012,07,19,02,49,12.80
2012,07,19,02,50,12.80
2012,07,19,02,51,12.80
2012,07,19,02,52,12.80
2012,07,19,02,53,12.80
2012,07,19,02,54,12.90
2012,07,19,02,55,12.90
2012,07,19,02,56,12.90
2012,07,19,02,57,12.90
2012,07,19,02,58,12.90
2012,07,19,02,59,12.90
2012,07,19,03,00,12.90
2012,07,19,03,01,12.90
2012,07,19,03,02,12.90
2012,07,19,03,03,13.00
2012,07,19,03,04,13.00
2012,07,19,03,05,13.00
2012,07,19,03,06,13.00
2012,07,19,03,07,13.00
2012,07,19,03,08,13.00
2012,07,19,03,09,13.00
2012,07,19,03,10,13.00
2012,07,19,03,11,13.00
2012,07,19,03,12,13.00
2012,07,19,03,13,13.00
2012,07,19,03,14,13.00
2012,07,19,03,15,13.10
2012,07,19,03,16,13.10
2012,07,19,03,17,13.10
2012,07,19,03,18,13.10
2012,07,19,03,19,13.10
2012,07,19,03,20,13.10
2012,07,19,03,21,13.10
2012,07,19,03,22,13.10
2012,07,19,03,23,13.10
2012,07,19,03,24,13.10
2012,07,19,03,25,13.10
2012,07,19,03,26,13.10
2012,07,19,03,27,13.10
2012,07,19,03,28,13.10
2012,07,19,03,29,13.10
2012,07,19,03,30,13.10
2012,07,19,03,31,13.10
2012,07,19,03,32,13.10
2012,07,19,03,33,13.10
2012,07,19,03,34,13.10
2012,07,19,03,35,13.10
2012,07,19,03,36,13.10
2012,07,19,03,37,13.10
2012,07,19,03,38,13.00
2012,07,19,03,39,13.00
2012,07,19,03,40,13.00
2012,07,19,03,41,13.00
2012,07,19,03,42,13.00
2012,07,19,03,43,13.00
2012,07,19,03,44,13.00
2012,07,19,03,45,13.00
2012,07,19,03,46,13.00
2012,07,19,03,47,13.00
2012,07,19,03,48,13.00
2012,07,19,03,49,13.00
2012,07,19,03,50,13.00
2012,07,19,03,51,13.00
2012,07,19,03,52,13.00
2012,07,19,03,53,13.00
2012,07,19,03,54,13.00
2012,07,19,03,55,13.00
2012,07,19,03,56,13.00
2012,07,19,03,57,13.00
2012,07,19,03,58,13.00
2012,07,19,03,59,13.00
2012,07,19,04,00,13.00
2012,07,19,04,01,13.00
2012,07,19,04,02,12.90
2012,07,19,04,03,12.90
2012,07,19,04,04,13.00
2012,07,19,04,05,13.00
2012,07,19,04,06,13.00
2012,07,19,04,07,13.00
2012,07,19,04,08,13.00
2012,07,19,04,09,13.00
2012,07,19,04,10,13.00
2012,07,19,04,11,13.00
2012,07,19,04,12,13.00
2012,07,19,04,13,13.00
2012,07,19,04,14,13.00
2012,07,19,04,15,12.90
2012,07,19,04,16,12.90
2012,07,19,04,17,12.90
2012,07,19,04,18,12.90
2012,07,19,04,19,12.90
2012,07,19,04,20,12.90
2012,07,19,04,21,12.90
2012,07,19,04,22,12.90
2012,07,19,04,23,12.90
2012,07,19,04,24,12.90
2012,07,19,04,25,12.90
2012,07,19,04,26,13.00
2012,07,19,04,27,13.00
2012,07,19,04,28,13.00
2012,07,19,04,29,13.00
2012,07,19,04,30,13.00
2012,07,19,04,31,13.00
2012,07,19,04,32,13.00
2012,07,19,04,33,13.00
2012,07,19,04,34,12.90
2012,07,19,04,35,12.90
2012,07,19,04,36,12.90
2012,07,19,04,37,12.90
2012,07,19,04,38,12.90
2012,07,19,04,39,12.80
2012,07,19,04,40,12.80
2012,07,19,04,41,12.80
2012,07,19,04,42,12.80
2012,07,19,04,43,12.80
2012,07,19,04,44,12.80
2012,07,19,04,45,12.80
2012,07,19,04,46,12.70
2012,07,19,04,47,12.70
2012,07,19,04,48,12.70
2012,07,19,04,49,12.60
2012,07,19,04,50,12.60
2012,07,19,04,51,12.60
2012,07,19,04,52,12.60
2012,07,19,04,53,12.50
2012,07,19,04,54,12.50
2012,07,19,04,55,12.50
2012,07,19,04,56,12.50
2012,07,19,04,57,12.50
2012,07,19,04,58,12.40
2012,07,19,04,59,12.40
2012,07,19,05,00,12.40
2012,07,19,05,01,12.40
2012,07,19,05,02,12.30
2012,07,19,05,03,12.30
2012,07,19,05,04,12.30
2012,07,19,05,05,12.30
2012,07,19,05,06,12.30
2012,07,19,05,07,12.30
2012,07,19,05,08,12.30
2012,07,19,05,09,12.30
2012,07,19,05,10,12.30
2012,07,19,05,11,12.30
2012,07,19,05,12,12.30
2012,07,19,05,13,12.30
2012,07,19,05,14,12.30
2012,07,19,05,15,12.20
2012,07,19,05,16,12.20
2012,07,19,05,17,12.20
2012,07,19,05,18,12.20
2012,07,19,05,19,12.20
2012,07,19,05,20,12.20
2012,07,19,05,21,12.20
2012,07,19,05,22,12.20
2012,07,19,05,23,12.20
2012,07,19,05,24,12.20
2012,07,19,05,25,12.20
2012,07,19,05,26,12.20
2012,07,19,05,27,12.20
2012,07,19,05,28,12.20
2012,07,19,05,29,12.10
2012,07,19,05,30,12.10
2012,07,19,05,31,12.10
2012,07,19,05,32,12.10
2012,07,19,05,33,12.10
2012,07,19,05,34,12.10
2012,07,19,05,35,12.10
2012,07,19,05,36,12.10
2012,07,19,05,37,12.20
2012,07,19,05,38,12.20
2012,07,19,05,39,12.20
2012,07,19,05,40,12.20
2012,07,19,05,41,12.20
2012,07,19,05,42,12.20
2012,07,19,05,43,12.20
2012,07,19,05,44,12.20
2012,07,19,05,45,12.20
2012,07,19,05,46,12.20
2012,07,19,05,47,12.30
2012,07,19,05,48,12.30
2012,07,19,05,49,12.30
2012,07,19,05,50,12.30
2012,07,19,05,51,12.30
2012,07,19,05,52,12.30
2012,07,19,05,53,12.30
2012,07,19,05,54,12.30
2012,07,19,05,55,12.30
2012,07,19,05,56,12.30
2012,07,19,05,57,12.30
2012,07,19,05,58,12.30
2012,07,19,05,59,12.30
2012,07,19,06,00,12.30
2012,07,19,06,01,12.30
2012,07,19,06,02,12.30
2012,07,19,06,03,12.30
2012,07,19,06,04,12.30
2012,07,19,06,05,12.30
2012,07,19,06,06,12.30
2012,07,19,06,07,12.40
2012,07,19,06,08,12.40
2012,07,19,06,09,12.40
2012,07,19,06,10,12.40
2012,07,19,06,11,12.40
2012,07,19,06,12,12.50
2012,07,19,06,13,12.50
2012,07,19,06,14,12.50
2012,07,19,06,15,12.50
2012,07,19,06,16,12.50
2012,07,19,06,17,12.50
2012,07,19,06,18,12.50
2012,07,19,06,19,12.50
2012,07,19,06,20,12.60
2012,07,19,06,21,12.60
2012,07,19,06,22,12.60
2012,07,19,06,23,12.60
2012,07,19,06,24,12.60
2012,07,19,06,25,12.60
2012,07,19,06,26,12.60
2012,07,19,06,27,12.60
2012,07,19,06,28,12.60
2012,07,19,06,29,12.60
2012,07,19,06,30,12.60
2012,07,19,06,31,12.60
2012,07,19,06,32,12.60
2012,07,19,06,33,12.70
2012,07,19,06,34,12.70
2012,07,19,06,35,12.70
2012,07,19,06,36,12.70
2012,07,19,06,37,12.70
2012,07,19,06,38,12.70
2012,07,19,06,39,12.70
2012,07,19,06,40,12.70
2012,07,19,06,41,12.70
2012,07,19,06,42,12.70
2012,07,19,06,43,12.70
2012,07,19,06,44,12.70
2012,07,19,06,45,12.70
2012,07,19,06,46,12.70
2012,07,19,06,47,12.70
2012,07,19,06,48,12.70
2012,07,19,06,49,12.70
2012,07,19,06,50,12.80
2012,07,19,06,51,12.80
2012,07,19,06,52,12.80
2012,07,19,06,53,12.80
2012,07,19,06,54,12.80
2012,07,19,06,55,12.80
2012,07,19,06,56,12.80
2012,07,19,06,57,12.80
2012,07,19,06,58,12.80
2012,07,19,06,59,12.80
2012,07,19,07,00,12.90
2012,07,19,07,01,12.90
2012,07,19,07,02,12.90
2012,07,19,07,03,12.90
2012,07,19,07,04,13.00
2012,07,19,07,05,13.00
2012,07,19,07,06,13.00
2012,07,19,07,07,13.00
2012,07,19,07,08,13.00
2012,07,19,07,09,13.00
2012,07,19,07,10,13.00
2012,07,19,07,11,13.00
2012,07,19,07,12,13.00
2012,07,19,07,13,13.10
2012,07,19,07,14,13.10
2012,07,19,07,15,13.10
2012,07,19,07,16,13.10
2012,07,19,07,17,13.10
2012,07,19,07,18,13.10
2012,07,19,07,19,13.10
2012,07,19,07,20,13.10
2012,07,19,07,21,13.20
2012,07,19,07,22,13.20
2012,07,19,07,23,13.20
2012,07,19,07,24,13.20
2012,07,19,07,25,13.20
2012,07,19,07,26,13.20
2012,07,19,07,27,13.20
2012,07,19,07,28,13.20
2012,07,19,07,29,13.20
2012,07,19,07,30,13.30
2012,07,19,07,31,13.30
2012,07,19,07,32,13.30
2012,07,19,07,33,13.30
2012,07,19,07,34,13.40
2012,07,19,07,35,13.50
2012,07,19,07,36,13.50
2012,07,19,07,37,13.60
2012,07,19,07,38,13.60
2012,07,19,07,39,13.70
2012,07,19,07,40,13.80
2012,07,19,07,41,13.90
2012,07,19,07,42,13.90
2012,07,19,07,43,14.00
2012,07,19,07,44,14.10
2012,07,19,07,45,14.20
2012,07,19,07,46,14.20
2012,07,19,07,47,14.20
2012,07,19,07,48,14.20
2012,07,19,07,49,14.20
2012,07,19,07,50,14.30
2012,07,19,07,51,14.30
2012,07,19,07,52,14.40
2012,07,19,07,53,14.40
2012,07,19,07,54,14.40
2012,07,19,07,55,14.40
2012,07,19,07,56,14.50
2012,07,19,07,57,14.50
2012,07,19,07,58,14.50
2012,07,19,07,59,14.50
2012,07,19,08,00,14.60
2012,07,19,08,01,14.60
2012,07,19,08,02,14.70
2012,07,19,08,03,14.80
2012,07,19,08,04,14.90
2012,07,19,08,05,14.90
2012,07,19,08,06,15.00
2012,07,19,08,07,15.10
2012,07,19,08,08,15.10
2012,07,19,08,09,15.20
2012,07,19,08,10,15.20
2012,07,19,08,11,15.20
2012,07,19,08,12,15.30
2012,07,19,08,13,15.30
2012,07,19,08,14,15.40
2012,07,19,08,15,15.50
2012,07,19,08,16,15.60
2012,07,19,08,17,15.70
2012,07,19,08,18,15.80
2012,07,19,08,19,15.80
2012,07,19,08,20,15.80
2012,07,19,08,21,15.80
2012,07,19,08,22,16.00
2012,07,19,08,23,16.10
2012,07,19,08,24,16.10
2012,07,19,08,25,16.10
2012,07,19,08,26,16.10
2012,07,19,08,27,16.20
2012,07,19,08,28,16.30
2012,07,19,08,29,16.40
2012,07,19,08,30,16.50
2012,07,19,08,31,16.70
2012,07,19,08,32,16.80
2012,07,19,08,33,16.90
2012,07,19,08,34,16.90
2012,07,19,08,35,16.80
2012,07,19,08,36,16.70
2012,07,19,08,37,16.70
2012,07,19,08,38,16.70
2012,07,19,08,39,16.80
2012,07,19,08,40,16.90
2012,07,19,08,41,16.90
2012,07,19,08,42,16.90
2012,07,19,08,43,16.90
2012,07,19,08,44,16.90
2012,07,19,08,45,16.90
2012,07,19,08,46,16.90
2012,07,19,08,47,16.80
2012,07,19,08,48,16.80
2012,07,19,08,49,16.80
2012,07,19,08,50,16.80
2012,07,19,08,51,16.70
2012,07,19,08,52,16.80
2012,07,19,08,53,16.90
2012,07,19,08,54,17.00
2012,07,19,08,55,16.90
2012,07,19,08,56,16.90
2012,07,19,08,57,16.90
2012,07,19,08,58,16.90
2012,07,19,08,59,16.80
2012,07,19,09,00,16.80
2012,07,19,09,01,16.80
2012,07,19,09,02,16.90
2012,07,19,09,03,16.90
2012,07,19,09,04,17.10
2012,07,19,09,05,17.20
2012,07,19,09,06,17.30
2012,07,19,09,07,17.30
2012,07,19,09,08,17.40
2012,07,19,09,09,17.50
2012,07,19,09,10,17.50
2012,07,19,09,11,17.50
2012,07,19,09,12,17.60
2012,07,19,09,13,17.70
2012,07,19,09,14,17.70
2012,07,19,09,15,17.70
2012,07,19,09,16,17.80
2012,07,19,09,17,17.70
2012,07,19,09,18,17.70
2012,07,19,09,19,17.80
2012,07,19,09,20,17.80
2012,07,19,09,21,17.80
2012,07,19,09,22,17.80
2012,07,19,09,23,17.80
2012,07,19,09,24,17.70
2012,07,19,09,25,17.70
2012,07,19,09,26,17.60
2012,07,19,09,27,17.60
2012,07,19,09,28,17.70
2012,07,19,09,29,17.70
2012,07,19,09,30,17.80
2012,07,19,09,31,17.90
2012,07,19,09,32,17.90
2012,07,19,09,33,17.90
2012,07,19,09,34,17.90
2012,07,19,09,35,17.90
2012,07,19,09,36,17.90
2012,07,19,09,37,17.90
2012,07,19,09,38,17.90
2012,07,19,09,39,17.90
2012,07,19,09,40,17.90
2012,07,19,09,41,17.80
2012,07,19,09,42,17.80
2012,07,19,09,43,17.90
2012,07,19,09,44,18.10
2012,07,19,09,45,18.20
2012,07,19,09,46,18.40
2012,07,19,09,47,18.60
2012,07,19,09,48,18.70
2012,07,19,09,49,18.80
2012,07,19,09,50,18.90
2012,07,19,09,51,18.80
2012,07,19,09,52,18.70
2012,07,19,09,53,18.60
2012,07,19,09,54,18.50
2012,07,19,09,55,18.50
2012,07,19,09,56,18.50
2012,07,19,09,57,18.50
2012,07,19,09,58,18.60
2012,07,19,09,59,18.80
2012,07,19,10,00,18.80
2012,07,19,10,01,18.70
2012,07,19,10,02,18.70
2012,07,19,10,03,18.70
2012,07,19,10,04,18.70
2012,07,19,10,05,18.80
2012,07,19,10,06,18.80
2012,07,19,10,07,18.70
2012,07,19,10,08,18.70
2012,07,19,10,09,18.60
2012,07,19,10,10,18.50
2012,07,19,10,11,18.40
2012,07,19,10,12,18.30
2012,07,19,10,13,18.30
2012,07,19,10,14,18.30
2012,07,19,10,15,18.40
2012,07,19,10,16,18.40
2012,07,19,10,17,18.40
2012,07,19,10,18,18.50
2012,07,19,10,19,18.60
2012,07,19,10,20,18.70
2012,07,19,10,21,18.80
2012,07,19,10,22,18.90
2012,07,19,10,23,18.90
2012,07,19,10,24,19.10
2012,07,19,10,25,19.10
2012,07,19,10,26,19.10
2012,07,19,10,27,19.10
2012,07,19,10,28,19.10
2012,07,19,10,29,19.10
2012,07,19,10,30,19.00
2012,07,19,10,31,18.90
2012,07,19,10,32,18.90
2012,07,19,10,33,18.90
2012,07,19,10,34,18.80
2012,07,19,10,35,18.80
2012,07,19,10,36,18.90
2012,07,19,10,37,18.90
2012,07,19,10,38,19.00
2012,07,19,10,39,19.10
2012,07,19,10,40,19.20
2012,07,19,10,41,19.30
2012,07,19,10,42,19.30
2012,07,19,10,43,19.30
2012,07,19,10,44,19.30
2012,07,19,10,45,19.40
2012,07,19,10,46,19.50
2012,07,19,10,47,19.70
2012,07,19,10,48,19.80
2012,07,19,10,49,19.90
2012,07,19,10,50,20.00
2012,07,19,10,51,20.10
2012,07,19,10,52,20.20
2012,07,19,10,53,20.20
2012,07,19,10,54,20.20
2012,07,19,10,55,20.40
2012,07,19,10,56,20.50
2012,07,19,10,57,20.50
2012,07,19,10,58,20.60
2012,07,19,10,59,20.60
2012,07,19,11,00,20.60
2012,07,19,11,01,20.60
2012,07,19,11,02,20.60
2012,07,19,11,03,20.70
2012,07,19,11,04,20.70
2012,07,19,11,05,20.80
2012,07,19,11,06,20.80
2012,07,19,11,07,20.90
2012,07,19,11,08,20.90
2012,07,19,11,09,20.90
2012,07,19,11,10,20.90
2012,07,19,11,11,20.80
2012,07,19,11,12,20.90
2012,07,19,11,13,21.00
2012,07,19,11,14,21.00
2012,07,19,11,15,21.10
2012,07,19,11,16,21.20
2012,07,19,11,17,21.30
2012,07,19,11,18,21.30
2012,07,19,11,19,21.30
2012,07,19,11,20,21.20
2012,07,19,11,21,21.10
2012,07,19,11,22,21.00
2012,07,19,11,23,20.90
2012,07,19,11,24,21.00
2012,07,19,11,25,21.10
2012,07,19,11,26,21.10
2012,07,19,11,27,21.10
2012,07,19,11,28,21.10
2012,07,19,11,29,21.00
2012,07,19,11,30,21.00
2012,07,19,11,31,21.00
2012,07,19,11,32,21.00
2012,07,19,11,33,21.00
2012,07,19,11,34,21.10
2012,07,19,11,35,21.20
2012,07,19,11,36,21.20
2012,07,19,11,37,21.20
2012,07,19,11,38,21.30
2012,07,19,11,39,21.50
2012,07,19,11,40,21.60
2012,07,19,11,41,21.60
2012,07,19,11,42,21.60
2012,07,19,11,43,21.60
2012,07,19,11,44,21.60
2012,07,19,11,45,21.70
2012,07,19,11,46,21.70
2012,07,19,11,47,21.70
2012,07,19,11,48,21.80
2012,07,19,11,49,21.90
2012,07,19,11,50,21.90
2012,07,19,11,51,22.00
2012,07,19,11,52,22.00
2012,07,19,11,53,22.10
2012,07,19,11,54,22.10
2012,07,19,11,55,22.20
2012,07,19,11,56,22.30
2012,07,19,11,57,22.40
2012,07,19,11,58,22.40
2012,07,19,11,59,22.50
2012,07,19,12,00,22.60
2012,07,19,12,01,22.60
2012,07,19,12,02,22.60
2012,07,19,12,03,22.50
2012,07,19,12,04,22.50
2012,07,19,12,05,22.40
2012,07,19,12,06,22.30
2012,07,19,12,07,22.20
2012,07,19,12,08,22.00
2012,07,19,12,09,21.80
2012,07,19,12,10,21.60
2012,07,19,12,11,21.60
2012,07,19,12,12,21.60
2012,07,19,12,13,21.70
2012,07,19,12,14,21.90
2012,07,19,12,15,22.10
2012,07,19,12,16,22.20
2012,07,19,12,17,22.30
2012,07,19,12,18,22.30
2012,07,19,12,19,22.30
2012,07,19,12,20,22.30
2012,07,19,12,21,22.20
2012,07,19,12,22,22.20
2012,07,19,12,23,22.20
2012,07,19,12,24,22.20
2012,07,19,12,25,22.20
2012,07,19,12,26,22.20
2012,07,19,12,27,22.10
2012,07,19,12,28,22.10
2012,07,19,12,29,22.00
2012,07,19,12,30,22.00
2012,07,19,12,31,22.10
2012,07,19,12,32,22.10
2012,07,19,12,33,22.00
2012,07,19,12,34,21.90
2012,07,19,12,35,21.80
2012,07,19,12,36,21.80
2012,07,19,12,37,21.90
2012,07,19,12,38,22.00
2012,07,19,12,39,22.10
2012,07,19,12,40,22.20
2012,07,19,12,41,22.30
2012,07,19,12,42,22.40
2012,07,19,12,43,22.50
2012,07,19,12,44,22.60
2012,07,19,12,45,22.70
2012,07,19,12,46,22.80
2012,07,19,12,47,22.80
2012,07,19,12,48,22.90
2012,07,19,12,49,23.00
2012,07,19,12,50,23.10
2012,07,19,12,51,23.10
2012,07,19,12,52,23.10
2012,07,19,12,53,23.10
2012,07,19,12,54,23.10
2012,07,19,12,55,23.20
2012,07,19,12,56,23.10
2012,07,19,12,57,23.00
2012,07,19,12,58,22.80
2012,07,19,12,59,22.60
2012,07,19,13,00,22.50
2012,07,19,13,01,22.30
2012,07,19,13,02,22.40
2012,07,19,13,03,22.50
2012,07,19,13,04,22.60
2012,07,19,13,05,22.70
2012,07,19,13,06,22.90
2012,07,19,13,07,22.90
2012,07,19,13,08,23.10
2012,07,19,13,09,23.30
2012,07,19,13,10,23.30
2012,07,19,13,11,23.30
2012,07,19,13,12,23.20
2012,07,19,13,13,23.10
2012,07,19,13,14,23.00
2012,07,19,13,15,23.00
2012,07,19,13,16,23.00
2012,07,19,13,17,22.90
2012,07,19,13,18,22.80
2012,07,19,13,19,22.60
2012,07,19,13,20,22.60
2012,07,19,13,21,22.60
2012,07,19,13,22,22.60
2012,07,19,13,23,22.40
2012,07,19,13,24,22.30
2012,07,19,13,25,22.20
2012,07,19,13,26,22.10
2012,07,19,13,27,22.20
2012,07,19,13,28,22.30
2012,07,19,13,29,22.50
2012,07,19,13,30,22.60
2012,07,19,13,31,22.70
2012,07,19,13,32,22.70
2012,07,19,13,33,22.90
2012,07,19,13,34,22.90
2012,07,19,13,35,22.80
2012,07,19,13,36,22.80
2012,07,19,13,37,22.80
2012,07,19,13,38,22.80
2012,07,19,13,39,22.80
2012,07,19,13,40,22.90
2012,07,19,13,41,22.90
2012,07,19,13,42,22.90
2012,07,19,13,43,22.80
2012,07,19,13,44,22.80
2012,07,19,13,45,22.90
2012,07,19,13,46,22.90
2012,07,19,13,47,22.90
2012,07,19,13,48,23.00
2012,07,19,13,49,23.20
2012,07,19,13,50,23.30
2012,07,19,13,51,23.30
2012,07,19,13,52,23.40
2012,07,19,13,53,23.60
2012,07,19,13,54,23.70
2012,07,19,13,55,23.70
2012,07,19,13,56,23.70
2012,07,19,13,57,23.70
2012,07,19,13,58,23.50
2012,07,19,13,59,23.40
2012,07,19,14,00,23.40
2012,07,19,14,01,23.50
2012,07,19,14,02,23.60
2012,07,19,14,03,23.60
2012,07,19,14,04,23.60
2012,07,19,14,05,23.70
2012,07,19,14,06,23.70
2012,07,19,14,07,23.70
2012,07,19,14,08,23.70
2012,07,19,14,09,23.70
2012,07,19,14,10,23.70
2012,07,19,14,11,23.70
2012,07,19,14,12,23.70
2012,07,19,14,13,23.70
2012,07,19,14,14,23.50
2012,07,19,14,15,23.30
2012,07,19,14,16,23.20
2012,07,19,14,17,23.20
2012,07,19,14,18,23.10
2012,07,19,14,19,23.20
2012,07,19,14,20,23.30
2012,07,19,14,21,23.40
2012,07,19,14,22,23.50
2012,07,19,14,23,23.70
2012,07,19,14,24,23.70
2012,07,19,14,25,23.60
2012,07,19,14,26,23.70
2012,07,19,14,27,23.60
2012,07,19,14,28,23.70
2012,07,19,14,29,23.70
2012,07,19,14,30,23.70
2012,07,19,14,31,23.60
2012,07,19,14,32,23.40
2012,07,19,14,33,23.20
2012,07,19,14,34,23.10
2012,07,19,14,35,23.10
2012,07,19,14,36,23.10
2012,07,19,14,37,23.20
2012,07,19,14,38,23.30
2012,07,19,14,39,23.40
2012,07,19,14,40,23.50
2012,07,19,14,41,23.60
2012,07,19,14,42,23.70
2012,07,19,14,43,23.70
2012,07,19,14,44,23.70
2012,07,19,14,45,23.70
2012,07,19,14,46,23.80
2012,07,19,14,47,23.70
2012,07,19,14,48,23.70
2012,07,19,14,49,23.80
2012,07,19,14,50,23.80
2012,07,19,14,51,23.90
2012,07,19,14,52,23.90
2012,07,19,14,53,23.90
2012,07,19,14,54,23.80
2012,07,19,14,55,23.80
2012,07,19,14,56,23.80
2012,07,19,14,57,23.70
2012,07,19,14,58,23.70
2012,07,19,14,59,23.70
2012,07,19,15,00,23.70
2012,07,19,15,01,23.70
2012,07,19,15,02,23.70
2012,07,19,15,03,23.70
2012,07,19,15,04,23.70
2012,07,19,15,05,23.80
2012,07,19,15,06,23.90
2012,07,19,15,07,23.90
2012,07,19,15,08,23.80
2012,07,19,15,09,23.80
2012,07,19,15,10,23.90
2012,07,19,15,11,23.90
2012,07,19,15,12,24.00
2012,07,19,15,13,24.10
2012,07,19,15,14,24.00
2012,07,19,15,15,23.90
2012,07,19,15,16,23.80
2012,07,19,15,17,23.80
2012,07,19,15,18,23.80
2012,07,19,15,19,23.80
2012,07,19,15,20,23.70
2012,07,19,15,21,23.80
2012,07,19,15,22,23.80
2012,07,19,15,23,23.80
2012,07,19,15,24,23.70
2012,07,19,15,25,23.70
2012,07,19,15,26,23.70
2012,07,19,15,27,23.70
2012,07,19,15,28,23.70
2012,07,19,15,29,23.70
2012,07,19,15,30,23.70
2012,07,19,15,31,23.70
2012,07,19,15,32,23.70
2012,07,19,15,33,23.70
2012,07,19,15,34,23.70
2012,07,19,15,35,23.60
2012,07,19,15,36,23.50
2012,07,19,15,37,23.40
2012,07,19,15,38,23.40
2012,07,19,15,39,23.50
2012,07,19,15,40,23.60
2012,07,19,15,41,23.70
2012,07,19,15,42,23.70
2012,07,19,15,43,23.70
2012,07,19,15,44,23.70
2012,07,19,15,45,23.80
2012,07,19,15,46,24.00
2012,07,19,15,47,24.10
2012,07,19,15,48,24.10
2012,07,19,15,49,24.10
2012,07,19,15,50,24.30
2012,07,19,15,51,24.30
2012,07,19,15,52,24.20
2012,07,19,15,53,24.10
2012,07,19,15,54,24.20
2012,07,19,15,55,24.40
2012,07,19,15,56,24.50
2012,07,19,15,57,24.60
2012,07,19,15,58,24.70
2012,07,19,15,59,24.60
2012,07,19,16,00,24.50
2012,07,19,16,01,24.60
2012,07,19,16,02,24.60
2012,07,19,16,03,24.70
2012,07,19,16,04,24.70
2012,07,19,16,05,24.70
2012,07,19,16,06,24.70
2012,07,19,16,07,24.60
2012,07,19,16,08,24.50
2012,07,19,16,09,24.50
2012,07,19,16,10,24.40
2012,07,19,16,11,24.30
2012,07,19,16,12,24.40
2012,07,19,16,13,24.40
2012,07,19,16,14,24.50
2012,07,19,16,15,24.50
2012,07,19,16,16,24.60
2012,07,19,16,17,24.60
2012,07,19,16,18,24.40
2012,07,19,16,19,24.40
2012,07,19,16,20,24.40
2012,07,19,16,21,24.40
2012,07,19,16,22,24.30
2012,07,19,16,23,24.30
2012,07,19,16,24,24.30
2012,07,19,16,25,24.30
2012,07,19,16,26,24.30
2012,07,19,16,27,24.40
2012,07,19,16,28,24.50
2012,07,19,16,29,24.50
2012,07,19,16,30,24.60
2012,07,19,16,31,24.60
2012,07,19,16,32,24.70
2012,07,19,16,33,24.70
2012,07,19,16,34,24.50
2012,07,19,16,35,24.50
2012,07,19,16,36,24.20
2012,07,19,16,37,24.10
2012,07,19,16,38,24.10
2012,07,19,16,39,24.10
2012,07,19,16,40,24.10
2012,07,19,16,41,24.10
2012,07,19,16,42,24.10
2012,07,19,16,43,24.10
2012,07,19,16,44,24.10
2012,07,19,16,45,24.10
2012,07,19,16,46,24.10
2012,07,19,16,47,24.10
2012,07,19,16,48,24.10
2012,07,19,16,49,24.20
2012,07,19,16,50,24.30
2012,07,19,16,51,24.40
2012,07,19,16,52,24.30
2012,07,19,16,53,24.30
2012,07,19,16,54,24.30
2012,07,19,16,55,24.00
2012,07,19,16,56,23.70
2012,07,19,16,57,23.40
2012,07,19,16,58,23.10
2012,07,19,16,59,22.90
2012,07,19,17,00,22.70
2012,07,19,17,01,22.40
2012,07,19,17,02,22.20
2012,07,19,17,03,22.00
2012,07,19,17,04,21.90
2012,07,19,17,05,21.80
2012,07,19,17,06,21.80
2012,07,19,17,07,21.80
2012,07,19,17,08,21.80
2012,07,19,17,09,21.80
2012,07,19,17,10,21.70
2012,07,19,17,11,21.60
2012,07,19,17,12,21.40
2012,07,19,17,13,21.20
2012,07,19,17,14,21.10
2012,07,19,17,15,21.00
2012,07,19,17,16,21.10
2012,07,19,17,17,21.10
2012,07,19,17,18,21.10
2012,07,19,17,19,21.10